Regional Weather Roundup
Issued by NWS

Home | Current Version | Previous Version | Graphics & Text | Print | Product List | Glossary On
Versions: 1 2 3 4 5 6 7 8 9 10 11 12 13 14 15 16 17 18 19 20 21 22 23 24 25 26 27 28 29 30 31 32 33 34 35 36 37 38 39 40 41 42 43 44 45 46 47 48 49 50
000
ASUS43 KLOT 291158
RWRIL

ILLINOIS REGIONAL WEATHER ROUNDUP
NATIONAL WEATHER SERVICE CHICAGO/ROMEOVILLE IL
700 AM CDT TUE JUL 29 2014

NOTE: "FAIR" INDICATES FEW OR NO CLOUDS BELOW 12,000 FEET WITH NO
SIGNIFICANT WEATHER AND/OR OBSTRUCTIONS TO VISIBILITY.

* THESE STATIONS ARE NOT UNDER NWS QUALITY CONTROL. THEY ALSO MAY NOT
  REPORT WEATHER SUCH AS PRECIPITATION OR FOG.

ILZ001-002-007-009-015-016-024-291300-
NORTHWEST ILLINOIS

CITY           SKY/WX    TMP DP  RH WIND       PRES   REMARKS
MOLINE         SUNNY     56  53  90 W5        30.11R
6HR MIN TEMP:  51; 6HR MAX TEMP:  56;

$$

ILZ003-004-008-010-011-017-018-291300-
NORTH CENTRAL ILLINOIS

CITY           SKY/WX    TMP DP  RH WIND       PRES   REMARKS
ROCKFORD       NOT AVBL
$$

ILZ005-006-012>014-019>023-291300-
NORTHEAST ILLINOIS

CITY           SKY/WX    TMP DP  RH WIND       PRES   REMARKS
CHICAGO-OHARE  MOSUNNY   62  51  67 W8        30.04R
6HR MIN TEMP:  58; 6HR MAX TEMP:  65;

CHICAGO-MIDWAY MOSUNNY   62  55  77 SW5       30.05R
6HR MIN TEMP:  60; 6HR MAX TEMP:  65;

AURORA         SUNNY     55  52  89 W6        30.07R
6HR MIN TEMP:  52; 6HR MAX TEMP:  58;

WAUKEGAN       PTSUNNY   61  54  77 W5        30.03R
6HR MIN TEMP:  53; 6HR MAX TEMP:  61;

DUPAGE AIRPORT SUNNY     60  53  77 W3        30.05R
6HR MIN TEMP:  55; 6HR MAX TEMP:  63;

WHEELING       PTSUNNY   63  54  72 NW5       30.05S
6HR MIN TEMP:  58; 6HR MAX TEMP:  63;

NORTHERLY ISL    N/A     63  54  72 W5          N/A
$$

LMZ740>746-291300-
SOUTHERN LAKE MICHIGAN

STATION/POSITION SKY/WX   TEMP    WIND        PRES    VSBY  WAVE
                          AIR SEA DIR/SP/G                  HT/PER
                          (F)     (DEG/KT/KT) (MB)    (MI)  (FT/S)
SOUTHERN BUOY              61 60  240/  8/ 10 1016.1R         1/ 5
WAUKEGAN HARBOR            62     290/  8/ 11   N/A
HARRISON CRIB              63     280/  7/  9   N/A
BURNHAM HARBOR             63     230/  5       N/A
CALUMET HARBOR             59     230/  3/  4 1016.1R
MICHIGAN CITY              58     190/  7/  9   N/A
MICHIGAN CITY 6N           63 67  230/  8/ 12   N/A           2/ 5
ST. JOSEPH                 65 66  220/ 10/ 12   N/A           2/ 6
$$

ILZ025>027-034>036-040-047-049-050-058-095>099-291300-
WEST-CENTRAL ILLINOIS

CITY           SKY/WX    TMP DP  RH WIND       PRES   REMARKS
QUINCY         CLEAR     57  55  93 SW3       30.14S
$$

ILZ028>032-037-038-041>044-048-051>054-059>061-291300-
CENTRAL ILLINOIS

CITY           SKY/WX    TMP DP  RH WIND       PRES   REMARKS
PEORIA         NOT AVBL
SPRINGFIELD    SUNNY     54  52  93 SW3       30.13R
6HR MIN TEMP:  52; 6HR MAX TEMP:  55;

TAYLORVILLE    NOT AVBL
$$

ILZ033-039-045-046-055>057-062-063-291300-
EAST-CENTRAL ILLINOIS

CITY           SKY/WX    TMP DP  RH WIND       PRES   REMARKS
CHAMPAIGN      MOSUNNY   56  54  93 W6        30.10R
MATTOON        MOSUNNY   57  53  86 W8        30.10R
$$

ILZ079-100>102-291300-
SOUTHWEST ILLINOIS

CITY           SKY/WX    TMP DP  RH WIND       PRES   REMARKS
ALTON          SUNNY     52  52 100 CALM      30.14S
BELLEVILLE     FOG       54  52  94 CALM      30.13S VSB 1
CAHOKIA*       SUNNY     54  53  97 CALM      30.14S
$$

ILZ064>066-069>071-074>076-080>082-084>086-088>090-092>094-291300-
SOUTH-CENTRAL ILLINOIS

CITY           SKY/WX    TMP DP  RH WIND       PRES   REMARKS
CARBONDALE     SUNNY     56  53  90 CALM      30.13S
6HR MIN TEMP:  54; 6HR MAX TEMP:  59;

$$

ILZ067-068-072-073-078-083-087-091-291300-
SOUTHEAST ILLINOIS

CITY           SKY/WX    TMP DP  RH WIND       PRES   REMARKS
LAWRENCEVILLE  CLOUDY    58  53  84 W7        30.10S
$$

ABBREVIATIONS USED IN REMARKS
   TC - TEMPERATURE IN CELSIUS
  WCI - WIND CHILL INDEX
   HX - HEAT INDEX
  VSB - VISIBILITY
$$



USA.gov is the U.S. government's official web portal to all federal, state and local government web resources and services.